Location: Cadenet
(43.7345°N, 5.3750°E)
Time: 07:57:26
(UTC+00:00)

Cosmos 2100 Rocket - Pass Details

Date: 18 February 2020
Orbit: 955 x 1002 km, 82.9° (Epoch: 27 March)

Event Time Altitude Azimuth Distance (km) Brightness Sun altitude
Rises 05:19:59 0° 348° (NNW) 3,683 6.9 -14.0°
Reaches altitude 10° 05:22:33 10° 345° (NNW) 2,725 6.2 -13.5°
Maximum altitude 05:28:40 61° 267° (W) 1,087 4.0 -12.4°
Drops below altitude 10° 05:34:41 10° 189° (S) 2,682 6.3 -11.3°
Sets 05:37:11 0° 186° (S) 3,620 7.0 -10.9°
